{"data":{"norad_id":64888,"epoch":"2026-05-25T04:28:28.135200Z","epoch_age_seconds":58911,"freshness":"FRESH","line1":"1 64888U 25155N   26145.18643675  .00030690  00000+0  76426-3 0  9995","line2":"2 64888  97.4460 115.7074 0004254 218.1633 141.9312 15.40190544 77390","mean_motion":15.40190544,"eccentricity":0.0004254,"inclination_deg":97.446,"raan_deg":115.7074,"arg_perigee_deg":218.1633,"mean_anomaly_deg":141.9312,"bstar":0.00076426,"rev_number":7739,"period_min":93.494925391517,"perigee_km":442.64367232647,"apogee_km":448.44926222043,"semimajor_km":6823.6834672734,"source":"CELESTRAK","updated_at":"2026-05-25T13:38:04.873257Z"}}